Content
SEND FEEDBACK

Daily
Averages
Monthly
Summary
Canada

WATERLOO WELLING, ONTARIO


Home > North America > Canada > Ontario
Elevation: 1031 feet     Latitude: 43 27N     Longitude: 080 23W

WEATHER
 
SELECT A DAY
Number of Records: 264,361;   Date Range: 1/1/95 - 10/19/14
 
SHARE

PRINT THIS DATA

[ ← Previous Day ]
WEATHER ALMANAC - APRIL 17, 2013
[ Next Day → ]
[ °C ]   °F
Weather ElementAverageHighLow
Temperature44.2 °F55.4 °F (4:00 pm)32 °F (7:00 am)
Dewpoint31 °F35.6 °F (11:00 pm)28.4 °F (4:00 am)
Humidity60.5 %87 % (3:00 am)31 % (2:00 pm)
Barometer30.30 in30.38 in (8:00 am)30.18 in (11:48 pm)
Wind Speed10 mph21.9 mph (11:48 pm)
Wind Gust28.8 mph (11:48 pm)
Weather ElementAverage
Visibility9.1 mi
Wind DirectionSSE (150.6 °)

Weather ElementTotal
Precipitation---
Heating Degree Days21.3 (Base 65)
Averaged from 33 records on April 17, 2013
WEATHER CONDITIONS BREAKOUT
WIND DIRECTION BREAKOUT
WEATHER BY HOUR - APRIL 17, 2013
[ °C ]   °F
Local TimeTemperatureDewpointHumidityBarometerVisibilityWind DirectionWind SpeedGust SpeedPrecipitationEventsConditions
1:00 AM37.4 °F30.2 °F75 %30.28 in9.0 miNorth (350°)6.9 mphClear
2:00 AM36.0 °F30.0 °F72 %30.29 in10.0 miNNW (340°)9.2 mph
2:00 AM37.4 °F30.2 °F75 %30.29 in9.0 miNNW (340°)9.2 mphScattered Clouds
3:00 AM33.8 °F30.2 °F87 %30.29 in9.0 miNNW (340°)6.9 mphPartly Cloudy
4:00 AM35.6 °F28.4 °F75 %30.31 in9.0 miNW (320°)6.9 mphPartly Cloudy
5:00 AM35.6 °F28.4 °F75 %30.33 in9.0 miSSW (210°)4.6 mphMostly Cloudy
7:00 AM32.0 °F28.4 °F87 %30.35 in9.0 miWNW (300°)4.6 mphClear
8:00 AM35.6 °F30.2 °F81 %30.38 in9.0 miNNW (340°)6.9 mphClear
8:00 AM36.0 °F30.0 °F72 %30.38 in10.0 miNNW (330°)5.8 mph
9:00 AM39.2 °F32.0 °F75 %30.37 in9.0 miNorth (360°)6.9 mphClear
10:00 AM42.8 °F32.0 °F66 %30.36 in9.0 miENE (60°)5.8 mphClear
11:00 AM48.2 °F32.0 °F54 %30.37 in9.0 miENE (70°)8.1 mphClear
12:00 PM50.0 °F32.0 °F50 %30.36 in9.0 miENE (70°)8.1 mphClear
1:00 PM51.8 °F32.0 °F47 %30.34 in9.0 miEast (100°)11.5 mphClear
2:00 PM53.0 °F31.0 °F31 %30.33 in10.0 miEast (80°)10.4 mph
2:00 PM53.6 °F32.0 °F44 %30.33 in9.0 miEast (90°)12.7 mph19.6 mphClear
3:00 PM53.6 °F32.0 °F44 %30.33 in9.0 miEast (100°)11.5 mph18.4 mphClear
4:00 PM55.4 °F30.2 °F38 %30.31 in9.0 miEast (80°)11.5 mphClear
5:00 PM53.6 °F32.0 °F44 %30.29 in9.0 miEast (90°)13.8 mph20.7 mphClear
6:00 PM51.8 °F32.0 °F47 %30.29 in9.0 miEast (100°)12.7 mphClear
7:00 PM50.0 °F30.2 °F47 %30.28 in9.0 miESE (110°)13.8 mph20.7 mphClear
8:00 PM47.0 °F30.0 °F39 %30.26 in10.0 miEast (90°)12.7 mph
8:00 PM46.4 °F30.2 °F53 %30.25 in9.0 miEast (80°)12.7 mphMostly Cloudy
9:00 PM44.6 °F30.2 °F57 %30.22 in9.0 miEast (90°)13.8 mph23.0 mphMostly Cloudy
10:00 PM44.6 °F30.2 °F57 %30.24 in9.0 miENE (70°)16.1 mph23.0 mphOvercast
10:02 PM44.6 °F30.2 °F57 %30.25 in9.0 miENE (70°)11.5 mph23.0 mphThunderstormOvercast
10:18 PM46.4 °F30.2 °F53 %30.28 in9.0 miNNE (20°)5.8 mph18.4 mphOvercast
10:19 PM46.4 °F30.2 °F53 %30.27 in9.0 miNNE (30°)8.1 mph18.4 mphThunderstormThunderstorm
10:20 PM46.4 °F30.2 °F53 %30.26 in9.0 miNE (40°)9.2 mph18.4 mphRain-ThunderstormLight Thunderstorms and Rain
10:34 PM44.6 °F32.0 °F61 %30.30 in9.0 miNE (50°)9.2 mph19.6 mphRain-ThunderstormLight Rain
10:49 PM42.8 °F33.8 °F70 %30.28 in9.0 miENE (70°)10.4 mphRainLight Rain
11:00 PM42.8 °F35.6 °F76 %30.27 in9.0 miEast (90°)10.4 mphRainLight Rain
11:48 PM41.0 °F35.6 °F81 %30.18 in9.0 miEast (90°)21.9 mph28.8 mphRainLight Rain
Hourly data recorded from CYKF, located miles away from Waterloo Welling, Ontario







STORIES FROM OUR PARTNERS